User: anonymous   Login
Location: Unspecified
(0.0000°N, 0.0000°E)
Time: 23:16:54
(UTC+00:00)
Language:

SARAL - Orbit

View from above orbital plane
View from above orbital plane
View from above satellite
View from above satellite

Ground track
Ground track

The orbit data is extracted from the following two-line orbital elements,

1 39086U 13009A   21125.76957683  .00000003  00000-0  17485-4 0  9993
2 39086  98.5466 312.4585 0001781  62.8941 297.2424 14.32050745428130
Epoch (UTC): 05 May 2021 18:28:11
Eccentricity: 0.0001781
inclination: 98.5466°
perigee height: 783 km
apogee height: 786 km
right ascension of ascending node: 312.4585°
argument of perigee: 62.8941°
revolutions per day: 14.32050745
mean anomaly at epoch: 297.2424°
orbit number at epoch: 42813

The dashed part of the orbit path shows where the satellite is in the earth's shadow,  

DLR